Location: Hohe Wand Kleine Kanzel
(47.8330°N, 16.0170°E)
Time: 14:49:33
(UTC+02:00)

Courier 1B Rocket - Pass Details

Date: 06 August 2021
Orbit: 920 x 1202 km, 28.3° (Epoch: 27 September)

Event Time Altitude Azimuth Distance (km) Brightness Sun altitude
Rises 01:58:24 0° 230° (SW) 3,898 - -24.2°
Reaches altitude 10° 02:02:48 10° 207° (SSW) 2,874 - -24.1°
Maximum altitude 02:06:04 14° 178° (S) 2,552 - -23.9°
Drops below altitude 10° 02:09:15 10° 150° (SSE) 2,776 - -23.7°
Exits shadow 02:12:50 - 128° (SE) 3,534 7.7 -23.6°
Sets 02:13:21 0° 126° (SE) 3,666 7.8 -23.5°
